TimePDT,TemperatureF,Dew PointF,Humidity,Sea Level PressureIn,VisibilityMPH,Wind Direction,Wind SpeedMPH,Gust SpeedMPH,PrecipitationIn,Events,Conditions,WindDirDegrees,DateUTC
12:53 AM,55.9,55.0,97,29.94,7.0,SSE,5.8,-,0.04,Rain,Light Rain,160,2012-10-15 07:53:00
1:53 AM,55.9,55.0,97,29.92,10.0,SSE,6.9,-,0.06,Rain,Light Rain,150,2012-10-15 08:53:00
2:53 AM,55.9,55.0,97,29.93,8.0,South,5.8,-,0.01,Rain,Light Rain,170,2012-10-15 09:53:00
3:53 AM,55.9,55.0,97,29.91,7.0,South,3.5,-,0.06,Rain,Light Rain,180,2012-10-15 10:53:00
4:53 AM,55.0,54.0,96,29.90,10.0,ESE,5.8,-,0.01,,Overcast,110,2012-10-15 11:53:00
5:53 AM,55.9,54.0,93,29.90,10.0,SE,4.6,-,0.00,,Overcast,140,2012-10-15 12:53:00
6:53 AM,55.9,53.1,90,29.91,10.0,South,8.1,-,N/A,,Partly Cloudy,170,2012-10-15 13:53:00
7:53 AM,57.0,53.1,87,29.93,10.0,SSW,6.9,-,N/A,,Overcast,200,2012-10-15 14:53:00
8:53 AM,60.1,54.0,80,29.95,10.0,SSW,3.5,-,N/A,,Scattered Clouds,200,2012-10-15 15:53:00
9:53 AM,62.1,55.0,78,29.95,10.0,West,3.5,-,N/A,,Overcast,270,2012-10-15 16:53:00
10:53 AM,64.9,55.0,70,29.93,10.0,SW,8.1,-,N/A,,Partly Cloudy,220,2012-10-15 17:53:00
11:53 AM,68.0,55.0,63,29.91,10.0,West,12.7,-,N/A,,Clear,270,2012-10-15 18:53:00
12:53 PM,69.1,55.0,61,29.89,10.0,NW,8.1,-,N/A,,Mostly Cloudy,310,2012-10-15 19:53:00
1:53 PM,69.1,55.0,61,29.85,10.0,NW,5.8,-,N/A,,Scattered Clouds,320,2012-10-15 20:53:00
2:53 PM,70.0,55.0,59,29.82,10.0,NNW,6.9,-,N/A,,Mostly Cloudy,340,2012-10-15 21:53:00
3:53 PM,69.1,55.9,63,29.80,10.0,NW,5.8,-,N/A,,Mostly Cloudy,310,2012-10-15 22:53:00
4:53 PM,66.9,57.9,73,29.76,10.0,East,4.6,-,N/A,,Mostly Cloudy,80,2012-10-15 23:53:00
5:53 PM,64.9,55.9,73,29.74,10.0,East,6.9,-,0.00,Rain,Light Rain,80,2012-10-16 00:53:00
6:53 PM,64.0,55.9,75,29.73,10.0,SSE,10.4,-,0.05,,Overcast,150,2012-10-16 01:53:00
7:53 PM,63.0,57.0,81,29.69,10.0,South,6.9,-,0.00,,Scattered Clouds,180,2012-10-16 02:53:00
8:53 PM,64.9,57.0,75,29.69,5.0,SSW,11.5,-,0.03,Rain,Rain,200,2012-10-16 03:53:00
9:53 PM,64.9,57.0,75,29.66,10.0,South,11.5,-,0.03,Rain,Light Rain,190,2012-10-16 04:53:00
10:53 PM,66.0,57.0,73,29.63,10.0,SSW,12.7,24.2,0.00,,Mostly Cloudy,210,2012-10-16 05:53:00
11:53 PM,63.0,59.0,87,29.63,10.0,SSW,10.4,-,0.05,,Overcast,210,2012-10-16 06:53:00